• In Hungary
  • List of Countries
  • For 7 days
  • Water Temperature
  • Satellite Maps
  • Weather Map
  • News
  • Weather Widgets
  • user-avatar
    Login

    Hourly Weather Volostnovka

    Today, 18 September, Tuesday

    Time Temperature Precipitation Wind Pressure Humidity
    00:00 +18°C° 0 mm 2 mps 739 mmHg 44%
    01:00 +18°C° 0 mm 3 mps 738 mmHg 43%
    02:00 +18°C° 0 mm 3 mps 738 mmHg 43%
    03:00 +17°C° 0 mm 2 mps 738 mmHg 43%
    04:00 +18°C° 0 mm 4 mps 738 mmHg 37%
    05:00 +18°C° 0 mm 4 mps 738 mmHg 41%
    06:00 +18°C° 0 mm 4 mps 738 mmHg 44%
    07:00 +18°C° 0 mm 4 mps 738 mmHg 48%
    08:00 +19°C° 0 mm 4 mps 737 mmHg 48%
    09:00 +21°C° 0 mm 5 mps 737 mmHg 48%
    10:00 +22°C° 0 mm 6 mps 737 mmHg 47%
    11:00 +23°C° 0 mm 6 mps 737 mmHg 44%
    12:00 +23°C° 0 mm 6 mps 737 mmHg 40%
    13:00 +24°C° 0 mm 6 mps 737 mmHg 36%
    14:00 +25°C° 0 mm 5 mps 736 mmHg 38%
    15:00 +25°C° 0 mm 4 mps 736 mmHg 40%
    16:00 +25°C° 0 mm 3 mps 735 mmHg 42%
    17:00 +21°C° 0.1 mm 3 mps 735 mmHg 49%
    18:00 +19°C° 0.1 mm 2 mps 735 mmHg 56%
    19:00 +17°C° 0.1 mm 2 mps 734 mmHg 63%
    20:00 +16°C° 0.5 mm 2 mps 734 mmHg 69%
    21:00 +16°C° 0.5 mm 2 mps 734 mmHg 74%
    22:00 +14°C° 0.5 mm 3 mps 733 mmHg 80%
    23:00 +15°C° 0.8 mm 2 mps 733 mmHg 84%

    Tomorrow, 19 September, Wednesday

    Time Temperature Precipitation Wind Pressure Humidity
    00:00 +14°C° 0.8 mm 2 mps 733 mmHg 87%
    01:00 +14°C° 0.8 mm 2 mps 732 mmHg 90%
    02:00 +14°C° 0.4 mm 2 mps 732 mmHg 90%
    03:00 +12°C° 0.4 mm 3 mps 732 mmHg 91%
    04:00 +12°C° 0.4 mm 3 mps 732 mmHg 91%
    05:00 +12°C° 0.3 mm 4 mps 731 mmHg 92%
    06:00 +11°C° 0.3 mm 4 mps 731 mmHg 92%
    07:00 +11°C° 0.3 mm 4 mps 731 mmHg 93%
    08:00 +12°C° 0.2 mm 5 mps 732 mmHg 88%
    09:00 +12°C° 0.2 mm 5 mps 732 mmHg 84%
    10:00 +12°C° 0.2 mm 5 mps 732 mmHg 79%
    11:00 +12°C° 0.3 mm 5 mps 732 mmHg 79%
    12:00 +12°C° 0.3 mm 5 mps 732 mmHg 79%
    13:00 +12°C° 0.3 mm 5 mps 732 mmHg 79%
    14:00 +12°C° 0.5 mm 4 mps 732 mmHg 78%
    15:00 +13°C° 0.5 mm 4 mps 732 mmHg 77%
    16:00 +13°C° 0.5 mm 3 mps 732 mmHg 75%
    17:00 +12°C° 0.1 mm 3 mps 733 mmHg 79%
    18:00 +11°C° 0.1 mm 3 mps 733 mmHg 82%
    19:00 +10°C° 0.1 mm 3 mps 733 mmHg 85%
    20:00 +9°C° 0 mm 3 mps 733 mmHg 87%
    21:00 +8°C° 0 mm 3 mps 733 mmHg 90%
    22:00 +8°C° 0 mm 3 mps 733 mmHg 92%
    23:00 +7°C° 0 mm 2 mps 733 mmHg 93%

    Day after tomorrow, 20 September, Thursday

    Time Temperature Precipitation Wind Pressure Humidity
    00:00 +7°C° 0 mm 2 mps 733 mmHg 94%
    01:00 +7°C° 0 mm 2 mps 734 mmHg 95%
    02:00 +7°C° 0 mm 2 mps 734 mmHg 94%
    03:00 +7°C° 0 mm 2 mps 734 mmHg 94%
    04:00 +7°C° 0 mm 2 mps 734 mmHg 93%
    05:00 +7°C° 0 mm 2 mps 734 mmHg 94%
    06:00 +7°C° 0 mm 2 mps 734 mmHg 94%
    07:00 +7°C° 0 mm 2 mps 734 mmHg 94%
    08:00 +8°C° 0 mm 3 mps 735 mmHg 90%
    09:00 +9°C° 0 mm 3 mps 735 mmHg 86%
    10:00 +10°C° 0 mm 4 mps 735 mmHg 82%
    11:00 +10°C° 0 mm 4 mps 735 mmHg 81%
    12:00 +10°C° 0 mm 4 mps 736 mmHg 79%
    13:00 +11°C° 0 mm 4 mps 736 mmHg 77%
    14:00 +11°C° 0.1 mm 4 mps 736 mmHg 77%
    15:00 +10°C° 0.1 mm 5 mps 736 mmHg 77%
    16:00 +10°C° 0.1 mm 5 mps 736 mmHg 77%
    17:00 +10°C° 0 mm 4 mps 736 mmHg 80%
    18:00 +9°C° 0 mm 3 mps 737 mmHg 84%
    19:00 +8°C° 0 mm 2 mps 737 mmHg 87%
    20:00 +7°C° 0 mm 2 mps 737 mmHg 88%
    21:00 +7°C° 0 mm 2 mps 737 mmHg 89%
    22:00 +6°C° 0 mm 2 mps 737 mmHg 90%
    23:00 +6°C° 0 mm 2 mps 737 mmHg 91%

    21 September, Friday

    Time Temperature Precipitation Wind Pressure Humidity
    00:00 +6°C° 0 mm 2 mps 737 mmHg 91%
    01:00 +6°C° 0 mm 2 mps 737 mmHg 92%
    02:00 +5°C° 0 mm 2 mps 737 mmHg 92%
    03:00 +5°C° 0 mm 2 mps 737 mmHg 92%
    04:00 +5°C° 0 mm 2 mps 737 mmHg 92%
    05:00 +5°C° 0 mm 2 mps 737 mmHg 92%
    06:00 +5°C° 0 mm 2 mps 737 mmHg 92%
    07:00 +5°C° 0 mm 2 mps 738 mmHg 92%
    08:00 +7°C° 0 mm 3 mps 738 mmHg 83%
    09:00 +8°C° 0 mm 4 mps 738 mmHg 75%
    10:00 +11°C° 0 mm 4 mps 739 mmHg 66%
    11:00 +12°C° 0 mm 5 mps 739 mmHg 63%
    12:00 +13°C° 0 mm 5 mps 739 mmHg 60%
    13:00 +14°C° 0 mm 5 mps 739 mmHg 56%
    14:00 +14°C° 0 mm 5 mps 739 mmHg 59%
    15:00 +13°C° 0 mm 5 mps 739 mmHg 61%
    16:00 +13°C° 0 mm 5 mps 739 mmHg 64%
    17:00 +12°C° 0 mm 4 mps 740 mmHg 70%
    18:00 +11°C° 0 mm 4 mps 740 mmHg 76%
    19:00 +10°C° 0 mm 3 mps 740 mmHg 83%
    20:00 +9°C° 0 mm 3 mps 741 mmHg 86%
    21:00 +9°C° 0 mm 3 mps 741 mmHg 90%
    22:00 +8°C° 0 mm 3 mps 741 mmHg 94%
    23:00 +8°C° 0 mm 3 mps 741 mmHg 94%

    22 September, Saturday

    Time Temperature Precipitation Wind Pressure Humidity
    00:00 +7°C° 0 mm 3 mps 741 mmHg 94%
    01:00 +7°C° 0 mm 3 mps 742 mmHg 94%
    02:00 +7°C° 0 mm 3 mps 742 mmHg 94%
    03:00 +7°C° 0 mm 3 mps 742 mmHg 94%
    04:00 +7°C° 0 mm 2 mps 742 mmHg 94%
    05:00 +7°C° 0 mm 3 mps 743 mmHg 94%
    06:00 +7°C° 0 mm 3 mps 743 mmHg 93%
    07:00 +7°C° 0 mm 3 mps 743 mmHg 92%
    08:00 +7°C° 0 mm 4 mps 744 mmHg 88%
    09:00 +8°C° 0 mm 4 mps 744 mmHg 83%
    10:00 +10°C° 0 mm 4 mps 744 mmHg 79%
    11:00 +10°C° 0 mm 5 mps 744 mmHg 76%
    12:00 +12°C° 0 mm 5 mps 744 mmHg 74%
    13:00 +12°C° 0 mm 5 mps 744 mmHg 71%
    14:00 +13°C° 0 mm 5 mps 744 mmHg 71%
    15:00 +13°C° 0 mm 5 mps 744 mmHg 71%
    16:00 +13°C° 0 mm 5 mps 744 mmHg 72%
    17:00 +11°C° 0 mm 4 mps 744 mmHg 78%
    18:00 +10°C° 0 mm 3 mps 744 mmHg 84%
    19:00 +9°C° 0 mm 2 mps 744 mmHg 91%
    20:00 +8°C° 0 mm 2 mps 744 mmHg 91%
    21:00 +8°C° 0 mm 2 mps 745 mmHg 92%
    22:00 +7°C° 0 mm 2 mps 745 mmHg 93%
    23:00 +7°C° 0 mm 2 mps 745 mmHg 93%

    23 September, Sunday

    Time Temperature Precipitation Wind Pressure Humidity
    00:00 +7°C° 0 mm 2 mps 744 mmHg 92%
    01:00 +6°C° 0 mm 2 mps 744 mmHg 92%
    02:00 +6°C° 0 mm 2 mps 744 mmHg 92%
    03:00 +6°C° 0 mm 2 mps 744 mmHg 92%
    04:00 +6°C° 0 mm 2 mps 744 mmHg 92%
    05:00 +6°C° 0 mm 2 mps 744 mmHg 92%
    06:00 +6°C° 0 mm 2 mps 744 mmHg 92%
    07:00 +6°C° 0 mm 2 mps 745 mmHg 92%
    08:00 +8°C° 0 mm 3 mps 744 mmHg 84%
    09:00 +10°C° 0 mm 3 mps 744 mmHg 75%
    10:00 +13°C° 0 mm 4 mps 744 mmHg 67%
    11:00 +14°C° 0 mm 4 mps 744 mmHg 64%
    12:00 +15°C° 0 mm 4 mps 743 mmHg 62%
    13:00 +17°C° 0 mm 4 mps 743 mmHg 59%
    14:00 +17°C° 0 mm 4 mps 743 mmHg 60%
    15:00 +17°C° 0 mm 4 mps 743 mmHg 61%
    16:00 +17°C° 0 mm 4 mps 743 mmHg 62%
    17:00 +14°C° 0 mm 4 mps 743 mmHg 70%
    18:00 +12°C° 0 mm 3 mps 743 mmHg 79%
    19:00 +11°C° 0 mm 3 mps 743 mmHg 87%
    20:00 +10°C° 0 mm 2 mps 743 mmHg 89%
    21:00 +9°C° 0 mm 2 mps 743 mmHg 90%
    22:00 +9°C° 0 mm 2 mps 744 mmHg 91%
    23:00 +8°C° 0 mm 2 mps 744 mmHg 91%
    Show more